Location: ???????
(56.2167°N, 38.0500°E)
Time: 11:38:47
(UTC+00:00)

Meteor 1-21 - Pass Details

Date: 19 May 2025
Orbit: 845 x 884 km, 81.2° (Epoch: 13 June)

Event Time Altitude Azimuth Distance (km) Brightness Sun altitude
Exits shadow 23:24:55 12° 197° (SSW) 2,347 5.9 -9.7°
Maximum altitude 23:30:13 82° 286° (WNW) 867 4.3 -9.3°
Drops below altitude 10° 23:35:54 10° 14° (NNE) 2,500 8.1 -8.9°
Sets 23:38:21 0° 15° (NNE) 3,446 9.1 -8.7°
